Weather in Sampit

Indonesia     2°31′07″S   112°54′53″E
temp.,
°C
wind,
m/s
gust,
m/s
humid.,
%
clouds,
%
prec.,
mm/h
press.,
hPa
HPBL,
m
16 october, sat
sat1623:00+23s1190100 0.0 100812
02:00+23s0190100 0.0 100711
05:00+23e119497 0.0 100712
08:00+27ne11787 0.0 1010244
11:00+34se115264 0.0 10081345
14:00+36se114470 0.1 10042186
17:00+29sse147589 0.0 1005132
20:00+26s278394 0.1 1007261
17 october, sun
sun1723:00+25sse1691100 0.0 1009211
02:00+25s129479 0.0 100752
05:00+24ene0097100 1.5 100716
08:00+27se1289100 5.7 1010180
11:00+30sse1273100 2.9 1009728
14:00+27ne2488100 7.1 100791
17:00+26ssw1192100 3.6 100713
20:00+24sse2797100 7.2 1010291
18 october, mon
mon1823:00+23sse1298100 4.4 101172
02:00+23se0198100 9.5 100920
05:00+22e1199100 1.6 100941
08:00+24nnw019363 4.8 1012143
11:00+32n12585 0.0 1011943
14:00+34nnw124955 0.0 10081883
17:00+29nne1176100 0.1 100729
20:00+26s0189100 2.9 101117
19 october, tue
tue1923:00+24s119794 5.0 101335
02:00+24wsw119817 6.9 101124
05:00+23wsw1299100 0.0 101272
08:00+25sw1292100 0.0 1014235
11:00+29s017891 2.6 1013447
14:00+33wsw1158100 4.1 10101396
17:00+28s248796 2.6 1009169
20:00+24ssw159695 6.6 1012106
20 october, wed
wed2023:00+24se0197100 11.9 101316
02:00+24w1297100 13.0 101156
05:00+23nw119894 0.0 101214
08:00+26nnw129196 0.0 1014246
11:00+29s0175100 1.9 1013848
14:00+30s127598 4.7 1009988
17:00+26se1291100 5.3 100954
20:00+24s1195100 5.9 101229